Time,TemperatureF,DewpointF,PressureIn,WindDirection,WindDirectionDegrees,WindSpeedMPH,WindSpeedGustMPH,Humidity,HourlyPrecipIn,Conditions,Clouds,dailyrainin,SolarRadiationWatts/m^2,SoftwareType,DateUTC
2013-02-23 00:00:00,62.2,59.2,30.04,East,87,8.0,17.0,90,0.11,RA,SCT,0.00,0.0,WeatherDisplay:10.37,2013-02-23 10:00:00,
2013-02-23 00:10:00,62.2,59.5,30.03,ENE,72,8.0,14.0,91,0.00,BKN,SCT,0.00,0.0,WeatherDisplay:10.37,2013-02-23 10:10:00,
2013-02-23 00:20:00,62.3,59.6,30.03,East,79,8.0,15.0,91,0.00,BKN,SCT,0.00,0.0,WeatherDisplay:10.37,2013-02-23 10:20:00,
2013-02-23 00:30:00,62.3,59.9,30.03,East,84,12.0,21.0,92,0.03,RA,SCT,0.03,0.0,WeatherDisplay:10.37,2013-02-23 10:30:00,
2013-02-23 00:40:00,62.3,59.6,30.03,ENE,66,7.0,18.0,91,0.03,RA,SCT,0.06,0.0,WeatherDisplay:10.37,2013-02-23 10:40:00,
2013-02-23 00:50:00,62.1,59.8,30.04,ENE,76,10.0,16.0,92,0.03,-RA,SCT,0.09,0.0,WeatherDisplay:10.37,2013-02-23 10:50:00,
2013-02-23 01:00:00,62.3,59.9,30.04,East,82,10.0,18.0,92,0.01,-RA,SCT,0.10,0.0,WeatherDisplay:10.37,2013-02-23 11:00:00,
2013-02-23 01:10:00,62.6,60.2,30.03,East,81,12.0,23.0,92,0.03,RA,SCT,0.13,0.0,WeatherDisplay:10.37,2013-02-23 11:10:00,
2013-02-23 01:20:00,62.5,60.1,30.03,East,96,13.0,22.0,92,0.00,FEW,SCT,0.13,0.0,WeatherDisplay:10.37,2013-02-23 11:20:00,
2013-02-23 01:30:00,62.5,59.2,30.02,East,91,15.0,21.0,89,0.00,FEW,SCT,0.13,0.0,WeatherDisplay:10.37,2013-02-23 11:30:00,
2013-02-23 01:40:00,62.4,58.8,30.02,East,96,8.0,18.0,88,0.00,FEW,SCT,0.13,0.0,WeatherDisplay:10.37,2013-02-23 11:40:00,
2013-02-23 01:50:00,62.5,58.9,30.01,East,99,12.0,21.0,88,0.00,FEW,SCT,0.13,0.0,WeatherDisplay:10.37,2013-02-23 11:50:00,
2013-02-23 02:00:00,62.7,58.7,30.00,East,93,15.0,26.0,87,0.00,FEW,SCT,0.13,0.0,WeatherDisplay:10.37,2013-02-23 12:00:00,
2013-02-23 02:10:00,62.9,58.6,30.00,East,85,12.0,26.0,86,0.00,FEW,SCT,0.13,0.0,WeatherDisplay:10.37,2013-02-23 12:10:00,
2013-02-23 02:20:00,62.9,58.6,29.99,East,84,9.0,33.0,86,0.00,CLR,SCT,0.13,0.0,WeatherDisplay:10.37,2013-02-23 12:20:00,
2013-02-23 02:30:00,62.8,58.5,30.00,East,81,6.0,24.0,86,0.00,CLR,SCT,0.13,0.0,WeatherDisplay:10.37,2013-02-23 12:30:00,
2013-02-23 02:40:00,62.4,58.2,30.00,East,91,13.0,24.0,86,0.00,CLR,SCT,0.13,0.0,WeatherDisplay:10.37,2013-02-23 12:40:00,
2013-02-23 02:50:00,62.3,58.3,30.00,East,94,5.0,15.0,87,0.00,CLR,SCT,0.13,0.0,WeatherDisplay:10.37,2013-02-23 12:50:00,
2013-02-23 03:00:00,62.3,58.4,30.00,East,99,2.0,15.0,87,0.00,CLR,SCT,0.13,0.0,WeatherDisplay:10.37,2013-02-23 13:00:00,
2013-02-23 03:10:00,62.0,58.1,29.99,ENE,77,3.0,12.0,87,0.00,CLR,SCT,0.13,0.0,WeatherDisplay:10.37,2013-02-23 13:10:00,
2013-02-23 03:20:00,62.2,57.6,29.99,ESE,111,7.0,12.0,85,0.00,CLR,SCT,0.13,0.0,WeatherDisplay:10.37,2013-02-23 13:20:00,
2013-02-23 03:30:00,62.5,57.3,29.98,ESE,102,6.0,12.0,83,0.00,CLR,SCT,0.13,0.0,WeatherDisplay:10.37,2013-02-23 13:30:00,
2013-02-23 03:40:00,63.1,56.2,29.98,ESE,104,6.0,12.0,78,0.00,CLR,SCT,0.13,0.0,WeatherDisplay:10.37,2013-02-23 13:40:00,
2013-02-23 03:50:00,63.4,55.7,29.98,East,100,6.0,12.0,76,0.00,CLR,SCT,0.13,0.0,WeatherDisplay:10.37,2013-02-23 13:50:00,
2013-02-23 04:00:00,63.3,55.2,29.98,East,86,5.0,10.0,75,0.00,CLR,SCT,0.13,0.0,WeatherDisplay:10.37,2013-02-23 14:00:00,
2013-02-23 04:10:00,63.0,55.3,29.98,East,81,6.0,21.0,76,0.00,CLR,SCT,0.13,0.0,WeatherDisplay:10.37,2013-02-23 14:10:00,
2013-02-23 04:20:00,62.6,55.6,29.98,East,97,6.0,12.0,78,0.00,CLR,SCT,0.13,0.0,WeatherDisplay:10.37,2013-02-23 14:20:00,
2013-02-23 04:30:00,62.4,55.4,29.98,East,95,6.0,15.0,78,0.00,CLR,SCT,0.13,0.0,WeatherDisplay:10.37,2013-02-23 14:30:00,
2013-02-23 04:40:00,62.2,54.9,29.98,East,100,7.0,12.0,77,0.00,CLR,SCT,0.13,0.0,WeatherDisplay:10.37,2013-02-23 14:40:00,
2013-02-23 04:50:00,62.0,54.4,29.98,East,101,6.0,12.0,76,0.00,CLR,SCT,0.13,0.0,WeatherDisplay:10.37,2013-02-23 14:50:00,
2013-02-23 05:00:00,62.1,54.8,29.98,ENE,75,6.0,12.0,77,0.00,CLR,SCT,0.13,0.0,WeatherDisplay:10.37,2013-02-23 15:00:00,
2013-02-23 05:10:00,62.1,54.8,29.99,ENE,72,8.0,12.0,77,0.00,CLR,SCT,0.13,0.0,WeatherDisplay:10.37,2013-02-23 15:10:00,
2013-02-23 05:20:00,62.2,54.9,29.99,ENE,78,7.0,14.0,77,0.00,CLR,SCT,0.13,0.0,WeatherDisplay:10.37,2013-02-23 15:20:00,
2013-02-23 05:30:00,62.2,56.0,30.00,East,91,7.0,14.0,80,0.00,CLR,SCT,0.13,0.0,WeatherDisplay:10.37,2013-02-23 15:30:00,
2013-02-23 05:40:00,62.1,56.2,30.00,East,93,3.0,15.0,81,0.00,CLR,SCT,0.13,0.0,WeatherDisplay:10.37,2013-02-23 15:40:00,
2013-02-23 05:50:00,61.9,56.7,30.00,East,97,7.0,12.0,83,0.00,CLR,SCT,0.13,0.0,WeatherDisplay:10.37,2013-02-23 15:50:00,
2013-02-23 06:00:00,62.0,57.1,30.01,ESE,102,3.0,10.0,84,0.00,CLR,SCT,0.13,0.0,WeatherDisplay:10.37,2013-02-23 16:00:00,
2013-02-23 06:10:00,62.2,58.0,30.01,East,87,7.0,15.0,86,0.00,CLR,SCT,0.13,0.0,WeatherDisplay:10.37,2013-02-23 16:10:00,
2013-02-23 06:20:00,62.3,57.7,30.01,East,90,7.0,13.0,85,0.00,CLR,SCT,0.13,0.0,WeatherDisplay:10.37,2013-02-23 16:20:00,
2013-02-23 06:30:00,62.4,56.8,30.02,East,97,9.0,16.0,82,0.00,CLR,SCT,0.13,0.0,WeatherDisplay:10.37,2013-02-23 16:30:00,
2013-02-23 06:40:00,62.5,56.6,30.02,East,93,6.0,15.0,81,0.00,CLR,SCT,0.13,0.0,WeatherDisplay:10.37,2013-02-23 16:40:00,
2013-02-23 06:50:00,62.3,56.4,30.02,East,93,6.0,12.0,81,0.00,CLR,SCT,0.13,0.0,WeatherDisplay:10.37,2013-02-23 16:50:00,
2013-02-23 07:00:00,62.2,56.0,30.03,East,88,6.0,12.0,80,0.00,CLR,SCT,0.13,8.0,WeatherDisplay:10.37,2013-02-23 17:00:00,
2013-02-23 07:10:00,62.3,56.0,30.03,East,98,6.0,12.0,80,0.00,FEW,SCT,0.13,12.7,WeatherDisplay:10.37,2013-02-23 17:10:00,
2013-02-23 07:20:00,62.4,55.8,30.04,East,98,6.0,12.0,79,0.00,FEW,SCT,0.13,14.3,WeatherDisplay:10.37,2013-02-23 17:20:00,
2013-02-23 07:30:00,62.6,55.3,30.04,East,94,9.0,15.0,77,0.00,FEW,SCT,0.13,26.0,WeatherDisplay:10.37,2013-02-23 17:30:00,
2013-02-23 07:40:00,63.3,55.6,30.04,East,87,10.0,17.0,76,0.00,FEW,SCT,0.13,40.3,WeatherDisplay:10.37,2013-02-23 17:40:00,
2013-02-23 07:50:00,63.8,55.7,30.04,East,82,8.0,18.0,75,0.00,FEW,SCT,0.13,55.7,WeatherDisplay:10.37,2013-02-23 17:50:00,
2013-02-23 08:00:00,64.2,56.1,30.05,East,86,6.0,14.0,75,0.00,FEW,SCT,0.13,290.2,WeatherDisplay:10.37,2013-02-23 18:00:00,
2013-02-23 08:10:00,65.6,57.0,30.04,East,91,7.0,15.0,74,0.00,FEW,SCT,0.13,317.2,WeatherDisplay:10.37,2013-02-23 18:10:00,
2013-02-23 08:20:00,67.4,57.3,30.04,ESE,103,8.0,14.0,70,0.00,FEW,SCT,0.13,327.8,WeatherDisplay:10.37,2013-02-23 18:20:00,
2013-02-23 08:30:00,68.9,58.3,30.05,East,86,5.0,13.0,69,0.00,FEW,SCT,0.13,327.8,WeatherDisplay:10.37,2013-02-23 18:30:00,
2013-02-23 08:40:00,69.4,58.3,30.05,ENE,77,7.0,15.0,68,0.00,FEW,SCT,0.13,339.5,WeatherDisplay:10.37,2013-02-23 18:40:00,
2013-02-23 08:50:00,69.8,59.6,30.05,East,81,6.0,17.0,70,0.00,FEW,SCT,0.13,346.9,WeatherDisplay:10.37,2013-02-23 18:50:00,
2013-02-23 09:00:00,69.8,59.6,30.05,ENE,74,8.0,15.0,70,0.00,FEW,SCT,0.13,360.2,WeatherDisplay:10.37,2013-02-23 19:00:00,
2013-02-23 09:10:00,69.9,60.4,30.06,ENE,71,9.0,17.0,72,0.00,FEW,SCT,0.13,328.9,WeatherDisplay:10.37,2013-02-23 19:10:00,
2013-02-23 09:20:00,70.3,60.8,30.05,ENE,77,7.0,15.0,72,0.00,FEW,SCT,0.13,370.3,WeatherDisplay:10.37,2013-02-23 19:20:00,
2013-02-23 09:30:00,70.3,60.8,30.05,ENE,78,8.0,14.0,72,0.00,FEW,SCT,0.13,379.3,WeatherDisplay:10.37,2013-02-23 19:30:00,
2013-02-23 09:40:00,70.5,61.1,30.05,East,82,9.0,18.0,72,0.00,FEW,SCT,0.13,384.6,WeatherDisplay:10.37,2013-02-23 19:40:00,
2013-02-23 09:50:00,71.2,61.3,30.05,East,89,9.0,21.0,71,0.00,FEW,SCT,0.13,387.3,WeatherDisplay:10.37,2013-02-23 19:50:00,
2013-02-23 10:00:00,71.5,60.3,30.05,ENE,77,7.0,15.0,68,0.00,FEW,SCT,0.13,178.8,WeatherDisplay:10.37,2013-02-23 20:00:00,
2013-02-23 10:10:00,71.0,60.7,30.05,ENE,76,12.0,18.0,70,0.00,SCT,SCT,0.13,147.5,WeatherDisplay:10.37,2013-02-23 20:10:00,
2013-02-23 10:20:00,71.1,60.8,30.05,East,83,7.0,17.0,70,0.00,SCT,SCT,0.13,414.3,WeatherDisplay:10.37,2013-02-23 20:20:00,
2013-02-23 10:30:00,71.9,61.6,30.05,East,99,7.0,13.0,70,0.00,SCT,SCT,0.13,454.6,WeatherDisplay:10.37,2013-02-23 20:30:00,
2013-02-23 10:40:00,73.8,63.4,30.05,ENE,75,8.0,14.0,70,0.00,SCT,SCT,0.13,427.6,WeatherDisplay:10.37,2013-02-23 20:40:00,
2013-02-23 10:50:00,74.0,63.2,30.04,ENE,70,8.0,15.0,69,0.00,SCT,SCT,0.13,411.7,WeatherDisplay:10.37,2013-02-23 20:50:00,
2013-02-23 11:00:00,74.0,62.7,30.04,ENE,72,8.0,18.0,68,0.00,SCT,SCT,0.13,413.3,WeatherDisplay:10.37,2013-02-23 21:00:00,
2013-02-23 11:10:00,73.7,63.7,30.04,ENE,70,13.0,21.0,71,0.00,SCT,SCT,0.13,417.0,WeatherDisplay:10.37,2013-02-23 21:10:00,
2013-02-23 11:20:00,72.9,61.7,30.03,ENE,77,12.0,22.0,68,0.00,SCT,SCT,0.13,316.2,WeatherDisplay:10.37,2013-02-23 21:20:00,
2013-02-23 11:30:00,73.6,61.6,30.03,East,84,9.0,16.0,66,0.00,SCT,SCT,0.13,429.7,WeatherDisplay:10.37,2013-02-23 21:30:00,
2013-02-23 11:40:00,74.6,63.3,30.03,East,80,9.0,18.0,68,0.00,SCT,SCT,0.13,428.6,WeatherDisplay:10.37,2013-02-23 21:40:00,
2013-02-23 11:50:00,74.7,61.3,30.03,East,87,10.0,18.0,63,0.00,SCT,SCT,0.13,435.0,WeatherDisplay:10.37,2013-02-23 21:50:00,
2013-02-23 12:00:00,74.0,61.0,30.03,East,101,7.0,18.0,64,0.00,SCT,SCT,0.13,423.3,WeatherDisplay:10.37,2013-02-23 22:00:00,
2013-02-23 12:10:00,74.0,61.1,30.02,East,89,10.0,21.0,64,0.00,CLR,SCT,0.13,423.3,WeatherDisplay:10.37,2013-02-23 22:10:00,
2013-02-23 12:20:00,73.9,61.0,30.01,East,89,10.0,23.0,64,0.00,CLR,SCT,0.13,427.6,WeatherDisplay:10.37,2013-02-23 22:20:00,
2013-02-23 12:30:00,73.8,61.7,30.01,East,87,12.0,24.0,66,0.00,CLR,SCT,0.13,457.3,WeatherDisplay:10.37,2013-02-23 22:30:00,
2013-02-23 12:40:00,74.7,63.0,30.01,East,79,10.0,21.0,67,0.00,CLR,SCT,0.13,461.0,WeatherDisplay:10.37,2013-02-23 22:40:00,
2013-02-23 12:50:00,73.7,61.2,30.01,ENE,71,10.0,25.0,65,0.00,CLR,SCT,0.13,408.0,WeatherDisplay:10.37,2013-02-23 22:50:00,
2013-02-23 13:00:00,73.2,62.4,30.00,East,83,14.0,23.0,69,0.00,CLR,SCT,0.13,455.7,WeatherDisplay:10.37,2013-02-23 23:00:00,
2013-02-23 13:10:00,73.7,63.3,30.00,ENE,71,12.0,23.0,70,0.00,SCT,SCT,0.13,536.3,WeatherDisplay:10.37,2013-02-23 23:10:00,
2013-02-23 13:20:00,73.1,61.5,30.00,East,81,12.0,22.0,67,0.00,SCT,SCT,0.13,452.0,WeatherDisplay:10.37,2013-02-23 23:20:00,
2013-02-23 13:30:00,73.0,60.5,29.99,East,87,14.0,21.0,65,0.00,SCT,SCT,0.13,455.7,WeatherDisplay:10.37,2013-02-23 23:30:00,
2013-02-23 13:40:00,73.6,61.5,29.99,East,89,10.0,22.0,66,0.00,SCT,SCT,0.13,441.4,WeatherDisplay:10.37,2013-02-23 23:40:00,
2013-02-23 13:50:00,73.7,62.9,29.99,East,91,12.0,20.0,69,0.00,SCT,SCT,0.13,550.1,WeatherDisplay:10.37,2013-02-23 23:50:00,
2013-02-23 14:00:00,72.6,61.0,29.99,East,91,15.0,21.0,67,0.00,SCT,SCT,0.13,427.6,WeatherDisplay:10.37,2013-02-24 00:00:00,
2013-02-23 14:10:00,73.1,61.1,29.98,East,96,8.0,20.0,66,0.00,SCT,SCT,0.13,428.6,WeatherDisplay:10.37,2013-02-24 00:10:00,
2013-02-23 14:20:00,73.3,60.0,29.97,East,100,9.0,17.0,63,0.00,SCT,SCT,0.13,413.3,WeatherDisplay:10.37,2013-02-24 00:20:00,
2013-02-23 14:30:00,74.3,61.3,29.97,East,82,9.0,16.0,64,0.00,SCT,SCT,0.13,405.3,WeatherDisplay:10.37,2013-02-24 00:30:00,
2013-02-23 14:40:00,74.2,61.2,29.97,ENE,72,13.0,24.0,64,0.00,SCT,SCT,0.13,408.0,WeatherDisplay:10.37,2013-02-24 00:40:00,
2013-02-23 14:50:00,74.0,62.4,29.96,ENE,69,12.0,20.0,67,0.00,SCT,SCT,0.13,423.3,WeatherDisplay:10.37,2013-02-24 00:50:00,
2013-02-23 15:00:00,74.3,63.1,29.96,ENE,74,14.0,26.0,68,0.00,SCT,SCT,0.13,452.0,WeatherDisplay:10.37,2013-02-24 01:00:00,
2013-02-23 15:10:00,72.9,62.5,29.96,ENE,74,10.0,24.0,70,0.00,SCT,SCT,0.13,419.6,WeatherDisplay:10.37,2013-02-24 01:10:00,
2013-02-23 15:20:00,72.6,61.0,29.96,East,94,12.0,20.0,67,0.00,SCT,SCT,0.13,292.8,WeatherDisplay:10.37,2013-02-24 01:20:00,
2013-02-23 15:30:00,73.6,60.6,29.96,East,94,8.0,20.0,64,0.00,SCT,SCT,0.13,433.9,WeatherDisplay:10.37,2013-02-24 01:30:00,
2013-02-23 15:40:00,74.5,60.6,29.96,East,91,10.0,18.0,62,0.00,SCT,SCT,0.13,397.3,WeatherDisplay:10.37,2013-02-24 01:40:00,
2013-02-23 15:50:00,73.8,61.7,29.96,East,90,10.0,17.0,66,0.00,SCT,SCT,0.13,383.6,WeatherDisplay:10.37,2013-02-24 01:50:00,
2013-02-23 16:00:00,73.7,62.1,29.96,East,83,8.0,14.0,67,0.00,SCT,SCT,0.13,427.6,WeatherDisplay:10.37,2013-02-24 02:00:00,
2013-02-23 16:10:00,74.1,61.6,29.96,ENE,69,12.0,15.0,65,0.00,SCT,SCT,0.13,372.9,WeatherDisplay:10.37,2013-02-24 02:10:00,
2013-02-23 16:20:00,72.4,60.4,29.96,East,81,10.0,22.0,66,0.00,SCT,SCT,0.13,354.9,WeatherDisplay:10.37,2013-02-24 02:20:00,
2013-02-23 16:30:00,72.1,61.3,29.96,East,84,8.0,20.0,69,0.00,SCT,SCT,0.13,385.7,WeatherDisplay:10.37,2013-02-24 02:30:00,
2013-02-23 16:40:00,71.3,61.8,29.97,ENE,76,8.0,18.0,72,0.00,SCT,SCT,0.13,263.1,WeatherDisplay:10.37,2013-02-24 02:40:00,
2013-02-23 16:50:00,69.4,60.7,29.97,East,83,8.0,16.0,74,0.00,SCT,SCT,0.13,80.1,WeatherDisplay:10.37,2013-02-24 02:50:00,
2013-02-23 17:00:00,67.8,59.6,29.97,ENE,75,14.0,24.0,75,0.00,SCT,SCT,0.13,71.1,WeatherDisplay:10.37,2013-02-24 03:00:00,
2013-02-23 17:10:00,66.7,60.0,29.98,ENE,75,12.0,22.0,79,0.00,SCT,SCT,0.13,71.1,WeatherDisplay:10.37,2013-02-24 03:10:00,
2013-02-23 17:20:00,66.1,59.4,29.98,East,86,9.0,17.0,79,0.00,SCT,SCT,0.13,81.7,WeatherDisplay:10.37,2013-02-24 03:20:00,
2013-02-23 17:30:00,66.5,59.1,29.98,East,82,9.0,20.0,77,0.00,SCT,SCT,0.13,62.1,WeatherDisplay:10.37,2013-02-24 03:30:00,
2013-02-23 17:40:00,66.2,59.8,29.98,ENE,76,12.0,16.0,80,0.00,SCT,SCT,0.13,46.7,WeatherDisplay:10.37,2013-02-24 03:40:00,
2013-02-23 17:50:00,65.6,60.0,29.99,ENE,76,10.0,21.0,82,0.00,SCT,SCT,0.13,40.3,WeatherDisplay:10.37,2013-02-24 03:50:00,
2013-02-23 18:00:00,64.9,60.6,29.99,ENE,75,8.0,17.0,86,0.01,RA,SCT,0.14,35.0,WeatherDisplay:10.37,2013-02-24 04:00:00,
2013-02-23 18:10:00,64.3,60.4,30.00,East,87,7.0,12.0,87,0.01,RA,SCT,0.15,18.0,WeatherDisplay:10.37,2013-02-24 04:10:00,
2013-02-23 18:20:00,64.1,60.8,30.00,East,82,9.0,18.0,89,0.01,RA,SCT,0.16,9.0,WeatherDisplay:10.37,2013-02-24 04:20:00,
2013-02-23 18:30:00,63.8,60.5,30.00,East,87,10.0,17.0,89,0.00,SCT,SCT,0.16,0.0,WeatherDisplay:10.37,2013-02-24 04:30:00,
2013-02-23 18:40:00,63.6,60.0,30.00,ENE,78,9.0,17.0,88,0.01,RA,SCT,0.17,0.0,WeatherDisplay:10.37,2013-02-24 04:40:00,
2013-02-23 18:50:00,63.3,60.4,30.01,East,80,7.0,16.0,90,0.05,RA,SCT,0.22,0.0,WeatherDisplay:10.37,2013-02-24 04:50:00,
2013-02-23 19:00:00,63.2,60.5,30.01,ENE,71,7.0,17.0,91,0.02,RA,SCT,0.24,0.0,WeatherDisplay:10.37,2013-02-24 05:00:00,
2013-02-23 19:10:00,63.0,60.3,30.01,ENE,78,8.0,17.0,91,0.06,RA,SCT,0.30,0.0,WeatherDisplay:10.37,2013-02-24 05:10:00,
2013-02-23 19:20:00,62.9,60.9,30.02,ENE,73,9.0,18.0,93,0.00,BKN,SCT,0.30,0.0,WeatherDisplay:10.37,2013-02-24 05:20:00,
2013-02-23 19:30:00,62.9,61.2,30.02,ENE,77,6.0,25.0,94,0.30,RA,SCT,0.62,0.0,WeatherDisplay:10.37,2013-02-24 05:30:00,
2013-02-23 19:40:00,62.7,60.6,30.02,ENE,75,10.0,22.0,93,0.09,RA,SCT,0.69,0.0,WeatherDisplay:10.37,2013-02-24 05:40:00,
2013-02-23 19:50:00,62.4,60.0,30.01,ENE,75,10.0,22.0,92,0.01,RA,SCT,0.70,0.0,WeatherDisplay:10.37,2013-02-24 05:50:00,
2013-02-23 20:00:00,62.2,59.8,30.01,East,80,12.0,24.0,92,0.00,BKN,SCT,0.70,0.0,WeatherDisplay:10.37,2013-02-24 06:00:00,
2013-02-23 20:10:00,62.1,59.7,30.02,ENE,77,13.0,18.0,92,0.01,RA,SCT,0.71,0.0,WeatherDisplay:10.37,2013-02-24 06:10:00,
2013-02-23 20:20:00,62.1,59.7,30.03,East,86,13.0,21.0,92,0.00,-RA,SCT,0.71,0.0,WeatherDisplay:10.37,2013-02-24 06:20:00,
2013-02-23 20:50:00,62.4,60.3,30.04,ENE,77,7.0,17.0,93,0.01,-RA,SCT,0.73,0.0,WeatherDisplay:10.37,2013-02-24 06:50:00,
2013-02-23 21:00:00,62.5,60.4,30.03,East,83,9.0,18.0,93,0.00,-RA,SCT,0.73,0.0,WeatherDisplay:10.37,2013-02-24 07:00:00,
2013-02-23 21:10:00,62.5,60.5,30.03,East,82,12.0,20.0,93,0.01,RA,SCT,0.74,0.0,WeatherDisplay:10.37,2013-02-24 07:10:00,
2013-02-23 21:20:00,62.6,60.5,30.03,ENE,73,9.0,20.0,93,0.00,OVC,SCT,0.74,0.0,WeatherDisplay:10.37,2013-02-24 07:20:00,
2013-02-23 21:30:00,62.6,60.5,30.03,ENE,69,8.0,20.0,93,0.00,OVC,SCT,0.74,0.0,WeatherDisplay:10.37,2013-02-24 07:30:00,
2013-02-23 21:40:00,62.3,60.0,30.03,East,81,10.0,26.0,92,0.01,RA,SCT,0.75,0.0,WeatherDisplay:10.37,2013-02-24 07:40:00,
2013-02-23 21:50:00,62.4,60.0,30.03,ENE,72,13.0,20.0,92,0.00,OVC,SCT,0.75,0.0,WeatherDisplay:10.37,2013-02-24 07:50:00,
2013-02-23 22:00:00,62.3,59.9,30.03,ENE,70,13.0,22.0,92,0.01,RA,SCT,0.76,0.0,WeatherDisplay:10.37,2013-02-24 08:00:00,
2013-02-23 22:10:00,62.3,59.9,30.03,East,83,10.0,21.0,92,0.00,FEW,SCT,0.76,0.0,WeatherDisplay:10.37,2013-02-24 08:10:00,
2013-02-23 22:20:00,62.3,59.9,30.03,East,81,10.0,21.0,92,0.00,FEW,SCT,0.76,0.0,WeatherDisplay:10.37,2013-02-24 08:20:00,
2013-02-23 22:30:00,62.2,59.8,30.03,ENE,76,9.0,17.0,92,0.00,FEW,SCT,0.76,0.0,WeatherDisplay:10.37,2013-02-24 08:30:00,
2013-02-23 22:40:00,62.3,59.9,30.03,ENE,68,7.0,21.0,92,0.00,FEW,SCT,0.76,0.0,WeatherDisplay:10.37,2013-02-24 08:40:00,
2013-02-23 22:50:00,62.3,59.6,30.03,ENE,77,10.0,20.0,91,0.01,RA,SCT,0.77,0.0,WeatherDisplay:10.37,2013-02-24 08:50:00,
2013-02-23 23:00:00,62.3,59.9,30.04,ENE,72,10.0,18.0,92,0.00,FEW,SCT,0.77,0.0,WeatherDisplay:10.37,2013-02-24 09:00:00,
2013-02-23 23:10:00,62.3,59.6,30.03,ENE,67,7.0,20.0,91,0.00,FEW,SCT,0.77,0.0,WeatherDisplay:10.37,2013-02-24 09:10:00,
2013-02-23 23:20:00,62.1,59.4,30.03,ENE,70,9.0,15.0,91,0.00,CLR,SCT,0.77,0.0,WeatherDisplay:10.37,2013-02-24 09:20:00,
2013-02-23 23:30:00,62.1,59.7,30.03,ENE,70,10.0,17.0,92,0.01,RA,SCT,0.78,0.0,WeatherDisplay:10.37,2013-02-24 09:30:00,
2013-02-23 23:40:00,62.2,59.8,30.03,ENE,72,9.0,18.0,92,0.00,CLR,SCT,0.78,0.0,WeatherDisplay:10.37,2013-02-24 09:40:00,
2013-02-23 23:50:00,62.1,59.7,30.03,ENE,76,7.0,20.0,92,0.01,RA,SCT,0.79,0.0,WeatherDisplay:10.37,2013-02-24 09:50:00,